Weather History for Corsicana, TX

Change the Weather History Date:

Saturday, December 14, 2013

  Actual Average (KACT) Record (KACT)
Temperature  
Mean Temperature 39 °F 48 °F  
Max Temperature 46 °F 59 °F 80 °F (1995)
Min Temperature 32 °F 37 °F 19 °F (1919)
Degree Days  
Heating Degree Days 26 17  
Month to date heating degree days 217  
Since 1 July heating degree days 545  
Cooling Degree Days 0 0  
Month to date cooling degree days 0  
Year to date cooling degree days 2792  
Moisture  
Dew Point 40 °F    
Average Humidity 90    
Maximum Humidity 100    
Minimum Humidity 67    
Precipitation  
Precipitation 0.00 in 0.09 in 2.20 in (1906)
Month to date precipitation 1.24  
Year to date precipitation 33.18  
Snow  
Snow 0.00 in 0.00 in 0.00 in ()
Month to date snowfall 0.0  
Since 1 July snowfall 0.1  
Snow Depth -    
Sea Level Pressure  
Sea Level Pressure 30.03 in    
Wind  
Wind Speed 11 mph (WNW)    
Max Wind Speed 21 mph    
Max Gust Speed 32 mph    
Visibility 4 miles    
Events Rain    
T = Trace of Precipitation, MM = Missing Value Source: NWS Daily Summary

Daily Weather History Graph

Daily Weather History Graph

Search for Another Location

Airport:

Trip Planner

Search our weather history database for the weather conditions in past years. The results will help you decide how hot, cold, wet, or windy it might be!

Date:

Astronomy

Dec. 14, 2013 Rise Set
Actual Time 7:18 AM CST 5:22 PM CST
Civil Twilight 6:51 AM CST 5:49 PM CST
Nautical Twilight 6:20 AM CST 6:20 PM CST
Astronomical Twilight 5:50 AM CST 6:49 PM CST
Moon 3:39 PM CST (12/14) 4:46 AM CST (12/14)
Length of Visible Light 10h 58m
Length of Day
10h 04m
Waxing Gibbous, 94% of the Moon is Illuminated
Dec 14
Waxing Gibbous
Dec 17
Full
Dec 25
Last Quarter
Jan 1
New
Jan 7
First Quarter

Hourly Weather History & Observations

Time (CST) Temp. Windchill Dew Point Humidity Pressure Visibility Wind Dir Wind Speed Gust Speed Precip Events Conditions
12:26 AM 46.9 °F - 46.9 °F 100% 29.84 in 1.0 mi SSW 11.5 mph - N/A   Mist
12:41 AM 46.9 °F - 46.9 °F 100% 29.84 in 0.8 mi SSW 9.2 mph - N/A   Mist
12:53 AM 46.9 °F - 46.9 °F 100% 29.84 in 1.0 mi SW 8.1 mph - N/A   Mist
1:24 AM 46.9 °F - 46.0 °F 97% 29.83 in 3.0 mi SW 16.1 mph - N/A   Overcast
1:36 AM 46.9 °F - 46.0 °F 97% 29.83 in 2.5 mi SSW 13.8 mph - 0.00 in Rain Light Rain
1:53 AM 46.0 °F 41.9 °F 46.0 °F 100% 29.84 in 2.5 mi SW 8.1 mph - 0.00 in Rain Light Rain
2:36 AM 46.0 °F 41.9 °F 46.0 °F 100% 29.83 in 1.8 mi SW 8.1 mph - 0.00 in   Overcast
2:43 AM 46.0 °F 41.4 °F 46.0 °F 100% 29.83 in 2.0 mi SSW 9.2 mph - 0.00 in   Overcast
2:53 AM 46.0 °F 40.6 °F 46.0 °F 100% 29.83 in 2.0 mi SSW 11.5 mph - 0.00 in   Overcast
3:07 AM 46.0 °F 42.5 °F 45.0 °F 96% 29.83 in 1.8 mi SSW 6.9 mph - N/A   Overcast
3:53 AM 46.0 °F 41.0 °F 45.0 °F 96% 29.83 in 1.2 mi SSW 10.4 mph - N/A   Overcast
4:35 AM 46.0 °F 40.6 °F 45.0 °F 96% 29.84 in 2.0 mi SSW 11.5 mph - N/A   Overcast
4:53 AM 46.0 °F 40.2 °F 45.0 °F 96% 29.85 in 1.8 mi SSW 12.7 mph - N/A   Overcast
5:01 AM 46.0 °F 41.4 °F 45.0 °F 96% 29.85 in 2.0 mi SSW 9.2 mph - N/A   Overcast
5:36 AM 46.0 °F 41.0 °F 45.0 °F 96% 29.87 in 1.8 mi SW 10.4 mph - N/A   Overcast
5:53 AM 46.0 °F 41.0 °F 45.0 °F 96% 29.88 in 1.2 mi SW 10.4 mph - N/A   Overcast
6:53 AM 44.1 °F 40.1 °F 44.1 °F 100% 29.93 in 2.0 mi West 6.9 mph - N/A   Mostly Cloudy
7:02 AM 44.1 °F 39.5 °F 43.0 °F 96% 29.93 in 3.0 mi WNW 8.1 mph - N/A   Mostly Cloudy
7:24 AM 45.0 °F 38.9 °F 43.0 °F 93% 29.95 in 6.0 mi NW 12.7 mph - N/A   Overcast
7:48 AM 44.6 °F 38.1 °F 44.6 °F 100% 29.97 in 4.0 mi NNW 13.8 mph - N/A   Overcast
7:49 AM 45.0 °F 38.9 °F 44.1 °F 97% 29.98 in 4.0 mi NNW 12.7 mph - N/A   Overcast
7:59 AM 45.0 °F 39.3 °F 44.1 °F 97% 29.99 in 2.5 mi NNW 11.5 mph - N/A   Overcast
8:08 AM 45.0 °F 40.1 °F 44.1 °F 97% 30.00 in 1.8 mi NNW 9.2 mph - N/A   Overcast
8:29 AM 45.0 °F 38.9 °F 44.1 °F 97% 30.02 in 2.0 mi NNW 12.7 mph - 0.00 in Rain Light Rain
8:53 AM 46.0 °F 39.9 °F 44.1 °F 93% 30.04 in 2.0 mi North 13.8 mph - 0.00 in Rain Light Rain
9:05 AM 45.0 °F 37.9 °F 44.1 °F 97% 30.05 in 3.0 mi North 16.1 mph 21.9 mph 0.00 in   Overcast
9:53 AM 44.1 °F 36.8 °F 42.1 °F 93% 30.09 in 5.0 mi North 16.1 mph 26.5 mph 0.00 in   Overcast
10:10 AM 44.1 °F 36.2 °F 41.0 °F 89% 30.10 in 7.0 mi North 18.4 mph 27.6 mph N/A   Overcast
10:53 AM 45.0 °F 38.2 °F 41.0 °F 86% 30.13 in 6.0 mi North 15.0 mph 20.7 mph N/A   Overcast
11:53 AM 46.9 °F - 41.0 °F 80% 30.13 in 6.0 mi NNW 15.0 mph - N/A   Haze
12:53 PM 45.0 °F 37.6 °F 39.0 °F 80% 30.14 in 4.0 mi NW 17.3 mph - N/A   Haze
1:53 PM 44.1 °F 35.9 °F 37.0 °F 76% 30.16 in 5.0 mi NNW 19.6 mph 27.6 mph N/A   Haze
2:53 PM 43.0 °F 34.2 °F 34.0 °F 71% 30.19 in 5.0 mi NW 20.7 mph 32.2 mph N/A   Haze
3:53 PM 41.0 °F 32.5 °F 30.9 °F 67% 30.21 in 5.0 mi NNW 17.3 mph 26.5 mph N/A   Haze
4:53 PM 39.9 °F 31.8 °F 30.9 °F 70% 30.23 in 6.0 mi NNW 15.0 mph 25.3 mph N/A   Haze
5:18 PM 39.0 °F 33.4 °F 30.9 °F 73% 30.24 in 6.0 mi NNW 8.1 mph - N/A   Haze
5:53 PM 37.9 °F 30.9 °F 30.0 °F 73% 30.26 in 7.0 mi NNW 10.4 mph - N/A   Clear
6:53 PM 36.0 °F 30.3 °F 30.0 °F 79% 30.28 in 7.0 mi North 6.9 mph - N/A   Clear
7:53 PM 35.1 °F 30.1 °F 28.9 °F 78% 30.30 in 7.0 mi NNW 5.8 mph - N/A   Clear
8:53 PM 32.0 °F 26.4 °F 28.0 °F 85% 30.32 in 6.0 mi NW 5.8 mph - N/A   Clear
9:53 PM 34.0 °F 28.0 °F 28.9 °F 82% 30.34 in 6.0 mi NW 6.9 mph - N/A   Haze
10:53 PM 35.1 °F 27.9 °F 28.0 °F 76% 30.35 in 7.0 mi NNW 9.2 mph - N/A   Clear
11:53 PM 35.1 °F 26.9 °F 28.0 °F 76% 30.34 in 7.0 mi NNW 11.5 mph - N/A   Clear